When you browse on this site, cookies collect data to enhance your experience and personalize the content and advertising you see.
Visit our Privacy Policy to learn more. By continuing to use the site, you agree to this use of cookies and data.
  • In Österreich
  • Länderverzeichnis
  • Für 7 Tage
  • Wassertemperatur
  • Wetterkarte
  • News
  • Widgets
  • user-avatar
    Anmelden

    Stündliche Wetter Jaltocán

    Heute, 19 September, Donnerstag

    Zeit Temperatur Niederschläge Wind Luftdruck Luftfeuchtigkeit
    00:00 +26°C° 0 mm 1 m/S 745 mmHg 95%
    01:00 +26°C° 0 mm 1 m/S 744 mmHg 95%
    02:00 +25°C° 0 mm 1 m/S 744 mmHg 94%
    03:00 +23°C° 0 mm 0 m/S 744 mmHg 94%
    04:00 +23°C° 0 mm 0 m/S 744 mmHg 94%
    05:00 +23°C° 0 mm 0 m/S 743 mmHg 94%
    06:00 +24°C° 0.1 mm 0 m/S 744 mmHg 91%
    07:00 +26°C° 0.1 mm 0 m/S 744 mmHg 89%
    08:00 +27°C° 0.1 mm 0 m/S 745 mmHg 86%
    09:00 +30°C° 0.5 mm 1 m/S 744 mmHg 83%
    10:00 +31°C° 0.5 mm 1 m/S 744 mmHg 80%
    11:00 +31°C° 0.5 mm 2 m/S 744 mmHg 78%
    12:00 +31°C° 1.1 mm 2 m/S 743 mmHg 80%
    13:00 +31°C° 1.1 mm 1 m/S 742 mmHg 82%
    14:00 +31°C° 1.1 mm 1 m/S 742 mmHg 84%
    15:00 +30°C° 1.2 mm 1 m/S 742 mmHg 87%
    16:00 +29°C° 1.2 mm 1 m/S 742 mmHg 90%
    17:00 +29°C° 1.2 mm 1 m/S 742 mmHg 93%
    18:00 +28°C° 0.2 mm 1 m/S 742 mmHg 94%
    19:00 +27°C° 0.2 mm 1 m/S 743 mmHg 94%
    20:00 +26°C° 0.2 mm 1 m/S 744 mmHg 95%
    21:00 +26°C° 0 mm 1 m/S 744 mmHg 95%
    22:00 +26°C° 0 mm 1 m/S 744 mmHg 95%
    23:00 +26°C° 0 mm 1 m/S 744 mmHg 96%

    Morgen, 20 September, Freitag

    Zeit Temperatur Niederschläge Wind Luftdruck Luftfeuchtigkeit
    00:00 +24°C° 0 mm 0 m/S 744 mmHg 96%
    01:00 +23°C° 0 mm 0 m/S 744 mmHg 96%
    02:00 +23°C° 0 mm 0 m/S 744 mmHg 96%
    03:00 +23°C° 0.1 mm 0 m/S 744 mmHg 96%
    04:00 +23°C° 0.1 mm 0 m/S 744 mmHg 96%
    05:00 +23°C° 0.1 mm 0 m/S 744 mmHg 96%
    06:00 +24°C° 0.2 mm 0 m/S 744 mmHg 93%
    07:00 +26°C° 0.2 mm 0 m/S 745 mmHg 90%
    08:00 +29°C° 0.2 mm 1 m/S 745 mmHg 87%
    09:00 +30°C° 0.2 mm 1 m/S 745 mmHg 82%
    10:00 +31°C° 0.2 mm 2 m/S 744 mmHg 77%
    11:00 +32°C° 0.2 mm 2 m/S 744 mmHg 72%
    12:00 +32°C° 0.4 mm 2 m/S 743 mmHg 74%
    13:00 +32°C° 0.4 mm 2 m/S 743 mmHg 77%
    14:00 +32°C° 0.4 mm 2 m/S 743 mmHg 79%
    15:00 +31°C° 0.6 mm 2 m/S 743 mmHg 82%
    16:00 +30°C° 0.6 mm 2 m/S 743 mmHg 86%
    17:00 +29°C° 0.6 mm 1 m/S 743 mmHg 89%
    18:00 +28°C° 0.2 mm 1 m/S 744 mmHg 91%
    19:00 +27°C° 0.2 mm 1 m/S 745 mmHg 93%
    20:00 +26°C° 0.2 mm 1 m/S 745 mmHg 94%
    21:00 +25°C° 0 mm 1 m/S 746 mmHg 94%
    22:00 +23°C° 0 mm 0 m/S 746 mmHg 95%
    23:00 +23°C° 0 mm 0 m/S 746 mmHg 95%

    übermorgen, 21 September, Samstag

    Zeit Temperatur Niederschläge Wind Luftdruck Luftfeuchtigkeit
    00:00 +23°C° 0 mm 0 m/S 746 mmHg 95%
    01:00 +22°C° 0 mm 0 m/S 745 mmHg 95%
    02:00 +22°C° 0 mm 0 m/S 745 mmHg 96%
    03:00 +22°C° 0 mm 0 m/S 745 mmHg 96%
    04:00 +22°C° 0 mm 0 m/S 746 mmHg 96%
    05:00 +22°C° 0 mm 0 m/S 746 mmHg 96%
    06:00 +23°C° 0 mm 0 m/S 746 mmHg 93%
    07:00 +24°C° 0 mm 0 m/S 746 mmHg 91%
    08:00 +25°C° 0 mm 0 m/S 747 mmHg 88%
    09:00 +29°C° 0 mm 1 m/S 746 mmHg 82%
    10:00 +30°C° 0 mm 1 m/S 746 mmHg 75%
    11:00 +32°C° 0 mm 2 m/S 745 mmHg 69%
    12:00 +32°C° 0.1 mm 2 m/S 744 mmHg 70%
    13:00 +31°C° 0.1 mm 2 m/S 744 mmHg 71%
    14:00 +31°C° 0.1 mm 2 m/S 743 mmHg 71%
    15:00 +30°C° 0.6 mm 2 m/S 743 mmHg 78%
    16:00 +29°C° 0.6 mm 1 m/S 743 mmHg 84%
    17:00 +28°C° 0.6 mm 1 m/S 744 mmHg 90%
    18:00 +27°C° 0.3 mm 1 m/S 744 mmHg 91%
    19:00 +26°C° 0.3 mm 1 m/S 745 mmHg 93%
    20:00 +26°C° 0.3 mm 1 m/S 746 mmHg 94%
    21:00 +25°C° 0 mm 1 m/S 746 mmHg 94%
    22:00 +25°C° 0 mm 1 m/S 746 mmHg 94%
    23:00 +25°C° 0 mm 1 m/S 746 mmHg 94%

    22 September, Sonntag

    Zeit Temperatur Niederschläge Wind Luftdruck Luftfeuchtigkeit
    00:00 +25°C° 0 mm 1 m/S 745 mmHg 94%
    01:00 +24°C° 0 mm 1 m/S 745 mmHg 94%
    02:00 +24°C° 0 mm 1 m/S 745 mmHg 93%
    03:00 +24°C° 0 mm 1 m/S 745 mmHg 93%
    04:00 +24°C° 0 mm 1 m/S 745 mmHg 93%
    05:00 +23°C° 0 mm 1 m/S 745 mmHg 93%
    06:00 +25°C° 0 mm 1 m/S 746 mmHg 89%
    07:00 +25°C° 0 mm 0 m/S 746 mmHg 84%
    08:00 +26°C° 0 mm 0 m/S 746 mmHg 80%
    09:00 +29°C° 0 mm 1 m/S 746 mmHg 76%
    10:00 +30°C° 0 mm 1 m/S 745 mmHg 73%
    11:00 +32°C° 0 mm 2 m/S 745 mmHg 69%
    12:00 +32°C° 0 mm 2 m/S 744 mmHg 69%
    13:00 +32°C° 0 mm 2 m/S 743 mmHg 70%
    14:00 +32°C° 0 mm 2 m/S 743 mmHg 70%
    15:00 +31°C° 0.1 mm 2 m/S 743 mmHg 75%
    16:00 +30°C° 0.1 mm 1 m/S 743 mmHg 79%
    17:00 +29°C° 0.1 mm 1 m/S 743 mmHg 84%
    18:00 +28°C° 0.2 mm 1 m/S 744 mmHg 87%
    19:00 +27°C° 0.2 mm 1 m/S 745 mmHg 90%
    20:00 +26°C° 0.2 mm 1 m/S 746 mmHg 94%
    21:00 +25°C° 0.1 mm 1 m/S 746 mmHg 94%
    22:00 +25°C° 0.1 mm 1 m/S 746 mmHg 94%
    23:00 +25°C° 0.1 mm 1 m/S 746 mmHg 95%

    23 September, Montag

    Zeit Temperatur Niederschläge Wind Luftdruck Luftfeuchtigkeit
    00:00 +25°C° 0 mm 1 m/S 746 mmHg 95%
    01:00 +24°C° 0 mm 1 m/S 745 mmHg 95%
    02:00 +24°C° 0 mm 1 m/S 745 mmHg 95%
    03:00 +24°C° 0 mm 1 m/S 745 mmHg 95%
    04:00 +24°C° 0 mm 1 m/S 745 mmHg 94%
    05:00 +24°C° 0 mm 1 m/S 745 mmHg 94%
    06:00 +23°C° 0 mm 0 m/S 746 mmHg 90%
    07:00 +25°C° 0 mm 0 m/S 746 mmHg 86%
    08:00 +26°C° 0 mm 0 m/S 746 mmHg 82%
    09:00 +30°C° 0 mm 1 m/S 746 mmHg 78%
    10:00 +31°C° 0 mm 1 m/S 745 mmHg 74%
    11:00 +32°C° 0 mm 2 m/S 745 mmHg 70%
    12:00 +32°C° 0.1 mm 2 m/S 744 mmHg 70%
    13:00 +32°C° 0.1 mm 2 m/S 744 mmHg 70%
    14:00 +32°C° 0.1 mm 2 m/S 743 mmHg 70%
    15:00 +31°C° 0.1 mm 2 m/S 743 mmHg 75%
    16:00 +30°C° 0.1 mm 2 m/S 743 mmHg 81%
    17:00 +29°C° 0.1 mm 1 m/S 743 mmHg 86%
    18:00 +28°C° 0.1 mm 1 m/S 744 mmHg 88%
    19:00 +27°C° 0.1 mm 1 m/S 745 mmHg 91%
    20:00 +25°C° 0.1 mm 1 m/S 745 mmHg 93%
    21:00 +25°C° 0 mm 1 m/S 745 mmHg 94%
    22:00 +25°C° 0 mm 1 m/S 745 mmHg 94%
    23:00 +24°C° 0 mm 1 m/S 745 mmHg 94%

    24 September, Dienstag

    Zeit Temperatur Niederschläge Wind Luftdruck Luftfeuchtigkeit
    00:00 +24°C° 0 mm 1 m/S 745 mmHg 94%
    01:00 +24°C° 0 mm 1 m/S 745 mmHg 94%
    02:00 +24°C° 0 mm 1 m/S 744 mmHg 94%
    03:00 +24°C° 0 mm 1 m/S 744 mmHg 94%
    04:00 +24°C° 0 mm 1 m/S 745 mmHg 94%
    05:00 +23°C° 0 mm 1 m/S 745 mmHg 94%
    06:00 +23°C° 0 mm 0 m/S 745 mmHg 89%
    07:00 +25°C° 0 mm 0 m/S 745 mmHg 85%
    08:00 +26°C° 0 mm 0 m/S 745 mmHg 81%
    09:00 +29°C° 0 mm 1 m/S 745 mmHg 78%
    10:00 +30°C° 0 mm 1 m/S 745 mmHg 74%
    11:00 +31°C° 0 mm 2 m/S 744 mmHg 71%
    12:00 +31°C° 0.1 mm 2 m/S 743 mmHg 71%
    13:00 +32°C° 0.1 mm 2 m/S 743 mmHg 72%
    14:00 +32°C° 0.1 mm 2 m/S 742 mmHg 72%
    15:00 +31°C° 0.1 mm 2 m/S 742 mmHg 77%
    16:00 +30°C° 0.1 mm 2 m/S 743 mmHg 82%
    17:00 +29°C° 0.1 mm 1 m/S 743 mmHg 87%
    18:00 +28°C° 0.1 mm 1 m/S 744 mmHg 89%
    19:00 +27°C° 0.1 mm 1 m/S 744 mmHg 92%
    20:00 +26°C° 0.1 mm 1 m/S 745 mmHg 94%
    21:00 +26°C° 0 mm 1 m/S 745 mmHg 94%
    22:00 +25°C° 0 mm 1 m/S 745 mmHg 95%
    23:00 +23°C° 0 mm 0 m/S 745 mmHg 95%
    Mehr zeigen